This is the latest recevied weather packets stored in our database for station/object G4KVI. If no packets are shown the sender has not sent any weather packets the latest 10 day(s).
| Time | Temp. | Humidity | Pressure | Rain* | Wind** | Luminosity | Snow |
|---|---|---|---|---|---|---|---|
| 1777746005 | 12.22° C | 94% | 1013.7 hPa | 2.29 mm | - | 5 W/m² | - |
| 1777745705 | 12.22° C | 94% | 1013.5 hPa | 2.54 mm | - | 5 W/m² | - |
| 1777745405 | 12.22° C | 93% | 1013.6 hPa | 2.54 mm | - | 5 W/m² | - |
| 1777745105 | 12.22° C | 93% | 1013.4 hPa | 2.79 mm | - | 5 W/m² | - |
| 1777744805 | 12.22° C | 93% | 1013.7 hPa | 2.79 mm | - | 4 W/m² | - |
| 1777744505 | 12.22° C | 93% | 1013.6 hPa | 2.79 mm | - | 6 W/m² | - |
| 1777744205 | 12.22° C | 93% | 1013.6 hPa | 2.54 mm | - | 7 W/m² | - |
| 1777743905 | 12.22° C | 93% | 1013.7 hPa | 2.03 mm | - | 12 W/m² | - |
| 1777743605 | 12.22° C | 92% | 1013.5 hPa | 1.78 mm | - | 8 W/m² | - |
| 1777743305 | 12.22° C | 92% | 1013.9 hPa | 1.52 mm | - | 7 W/m² | - |
| 1777743005 | 12.22° C | 92% | 1013.6 hPa | 1.02 mm | - | 8 W/m² | - |
| 1777742705 | 12.22° C | 92% | 1013.7 hPa | 0.76 mm | - | 8 W/m² | - |
| 1777742405 | 12.22° C | 92% | 1013.9 hPa | 0.76 mm | - | 9 W/m² | - |
| 1777742105 | 12.22° C | 92% | 1014 hPa | 0.76 mm | - | 13 W/m² | - |
| 1777741805 | 12.22° C | 92% | 1013.8 hPa | 0.76 mm | - | 5 W/m² | - |
| 1777741505 | 12.22° C | 91% | 1014.2 hPa | 0.76 mm | - | 7 W/m² | - |
| 1777741205 | 12.22° C | 91% | 1014.2 hPa | 0.76 mm | - | 13 W/m² | - |
| 1777740905 | 12.22° C | 91% | 1014.1 hPa | 1.02 mm | - | 8 W/m² | - |
| 1777740605 | 12.22° C | 91% | 1014.1 hPa | 1.02 mm | - | 9 W/m² | - |
| 1777740305 | 12.22° C | 91% | 1014.1 hPa | 1.27 mm | - | 11 W/m² | - |
| 1777740005 | 12.78° C | 91% | 1014.3 hPa | 1.27 mm | - | 27 W/m² | - |
| 1777739705 | 12.22° C | 90% | 1014.3 hPa | 1.52 mm | - | 7 W/m² | - |
| 1777739405 | 12.78° C | 90% | 1014.3 hPa | 1.78 mm | - | 13 W/m² | - |
| 1777739105 | 12.78° C | 90% | 1014.2 hPa | 2.29 mm | - | 14 W/m² | - |
| 1777738805 | 12.78° C | 90% | 1014.2 hPa | 2.79 mm | - | 31 W/m² | - |
* Rain latest hour (hover to see other rain measurements)
** Current wind speed in m/s (hover to see current wind gust speed)